Location: Fornova de Taro
(44.7000°N, 10.1000°E)
Time: 20:49:13
(UTC+00:00)

IRS-1C - Pass Details

Date: 26 May 2022
Orbit: 815 x 817 km, 98.9° (Epoch: 02 July)

Event Time Altitude Azimuth Distance (km) Brightness Sun altitude
Rises 03:03:44 0° 13° (NNE) 3,355 8.2 -6.3°
Reaches altitude 10° 03:06:05 10° 13° (NNE) 2,418 7.4 -6.0°
Maximum altitude 03:11:27 84° 286° (WNW) 826 4.2 -5.2°
Drops below altitude 10° 03:16:46 10° 199° (SSW) 2,400 6.1 -4.5°
Sets 03:19:05 0° 198° (SSW) 3,327 6.8 -4.1°
